Weather in Uspenka

Ukraine / Luhansk Region     48°23′38″N   39°09′12″E
temp.,
°C
wind,
m/s
gust,
m/s
humid.,
%
clouds,
%
prec.,
mm/h
press.,
hPa
HPBL,
m
8 may, sat
sat800:00+10ese3878100 0.0 1017166
03:00+11se3878100 0.0 1016199
06:00+12sse4977100 0.0 1015246
09:00+17s695790 0.0 1014731
12:00+19s7954100 0.0 10121317
15:00+21ssw9114686 0.0 10101594
18:00+20ssw71154100 0.0 10091351
21:00+15ssw3967100 0.0 1009177
9 may, sun
sun900:00+13nw61086100 0.0 1009477
03:00+8nw71284100 0.1 1011633
06:00+6nnw71191100 2.3 1013818
09:00+8nnw81177100 4.9 10141120
12:00+10nnw81162100 0.1 10161556
15:00+11nnw91154100 0.1 10171896
18:00+12n61053100 0.0 10181766
21:00+9nnw51067100 0.3 1021447
10 may, mon
mon1000:00+7nw41071100 0.0 1022377
03:00+6nw61073100 0.0 1022427
06:00+6nw61374100 0.0 1023564
09:00+10nnw91558100 0.0 10211478
12:00+12nnw91554100 0.1 10192192
15:00+7nnw101784100 2.9 10191332
18:00+7nnw101784100 2.1 10171120
21:00+7nnw91793100 5.3 1014930
11 may, tue
tue1100:00+10nne111794100 3.5 1011859
03:00+8ne61195100 3.7 1012645
06:00+7ne6994100 0.1 1014881
09:00+7ne71187100 0.3 1015964
12:00+7ene71191100 0.4 10151275
15:00+6ene81694100 1.0 10161278
18:00+7ese101593100 3.5 1016859
21:00+7ese71294100 3.9 1018577
12 may, wed
wed1200:00+8ese71196100 0.1 1018651
03:00+8sse71290100 0.8 1019849
06:00+7ese5994100 0.5 1020450
09:00+10e5882100 0.5 1020565
12:00+16ese71058100 0.0 10181780
15:00+18se8953100 0.1 10171787
18:00+17se596474 0.0 1017598
21:00+13ese377797 0.2 1017139